Flag for United Kingdom Weather past 2 weeks in Southampton, England, United Kingdom

Now
32 °F

Clear.


Feels Like: 29 °F
Forecast: N/A
Wind: 3 mph from North

Location: Southampton / Weather Centre

Current Time: Dec 28, 2014 at 5:15:34 PM

Latest Report: Dec 28, 2014 at 4:50 PM


Visibility: 10 mi

Pressure: 30.57 "Hg

Humidity: 75%

Dew point: 25 °F

Location of SouthamptonLocation

Historic Weather in Southampton — Graph

°F

Southampton temperature yesterday

Maximum temperature yesterday: 43 °F (at 2:50 PM)
Minimum temperature yesterday: 36 °F (at 8:50 PM)
Average temperature yesterday: 39 °F

Past Weeks' High & Low Weather Summary

 TemperatureHumidityPressure
High55 °F (Dec 18, 12:50 PM)100% (Dec 13, 6:20 PM)30.57 "Hg (Dec 13, 6:20 PM)
Low25 °F (Dec 13, 9:20 PM)53% (Dec 24, 2:20 PM)29.65 "Hg (Dec 26, 9:50 PM)
Average46 °F83%30.05 "Hg
* Reported Dec 13 4:20 PM — Dec 28 4:20 PM, Southampton, Weather by CustomWeather, © 2014

Note: Actual official high and low records may vary slightly from our data, if they occured in-between our weather recording intervals... More about our weather records

Advertising

Southampton weather history for previous 24 hours

 ConditionsComfort  
Time TempWeatherWind HumidityBarometerVisibility
4:20 PM
Dec 28
37 °FPassing clouds.2 mph65%30.57 "HgN/A
3:50 PM37 °FPassing clouds.2 mph65%30.54 "HgN/A
3:20 PM39 °FPassing clouds.6 mph61%30.54 "HgN/A
2:50 PM41 °FPassing clouds.7 mph61%30.51 "HgN/A
2:20 PM41 °FPassing clouds.10 mph57%30.51 "HgN/A
1:50 PM41 °FPassing clouds.6 mph61%30.51 "HgN/A
1:20 PM41 °FPassing clouds.8 mph61%30.48 "HgN/A
12:50 PM39 °FPassing clouds.9 mph65%30.48 "HgN/A
12:20 PM39 °FPassing clouds.8 mph65%30.45 "HgN/A
11:20 AM37 °FSunny.8 mph70%30.45 "Hg10 mi
10:50 AM37 °FSunny.8 mph70%30.45 "Hg10 mi
10:20 AM36 °FSunny.9 mph75%30.42 "Hg10 mi
9:50 AM32 °FSunny.8 mph87%30.39 "Hg10 mi
9:20 AM32 °FSunny.8 mph87%30.39 "Hg10 mi
8:50 AM32 °FSunny.8 mph87%30.36 "Hg10 mi
8:20 AM32 °FSunny.9 mph87%30.33 "Hg10 mi
7:50 AM32 °FClear.12 mph87%30.30 "Hg10 mi
7:20 AM32 °FClear.8 mph87%30.27 "Hg10 mi
6:50 AM32 °FClear.8 mph87%30.27 "Hg6 mi
8:50 PM
Dec 27
36 °FPassing clouds.9 mph93%29.89 "Hg6 mi
8:20 PM37 °FScattered showers. Partly cloudy.8 mph87%29.86 "Hg6 mi
7:50 PM37 °FRain showers. Partly cloudy.8 mph87%29.86 "Hg6 mi
7:20 PM37 °FPassing clouds.6 mph87%29.83 "HgN/A
6:50 PM37 °FPassing clouds.8 mph87%29.83 "HgN/A
6:20 PM37 °FPassing clouds.7 mph87%29.80 "HgN/A
5:50 PM37 °FPassing clouds.7 mph81%29.80 "HgN/A
5:20 PM37 °FPassing clouds.7 mph81%29.80 "HgN/A
Weather by CustomWeather, © 2014

See weather overviewHow to use our weather pages